Skip Page Navigation
NASA JPL Caltech
NASA Logo - Jet Propulsion Laboratory + View the NASA Portal
+ Center for Near-Earth Object Studies
JPL Home Earth Solar System Stars & Galaxies Technology
JPL Solar System Dynamics
BODIES ORBITS EPHEMERIDES TOOLS PHYSICAL DATA DISCOVERY FAQ SITE MAP
IMPORTANT: The SSD Announcement email list is now available. Major changes are coming in the near future, including possible hostname and/or URL changes. To be notified of such changes, subscribe to this email list.

Please visit this page for more details.


JPL Small-Body Database Browser
Search: [ help ]  
305245 (2007 XO37)
Classification: Main-belt Asteroid          SPK-ID: 2305245
Ephemeris | Orbit Diagram | Orbital Elements | Mission Design | Physical Parameters | Discovery Circumstances ]

[ show orbit diagram ]
Orbital Elements at Epoch 2458600.5 (2019-Apr-27.0) TDB
Reference: JPL 16 (heliocentric ecliptic J2000)
 Element Value Uncertainty (1-sigma)   Units 
e .1088372579398163 5.1296e-08  
a 2.606211320843123 1.7623e-08 au
q 2.322558427070851 1.3703e-07 au
i 6.4708948853628 4.936e-06 deg
node 58.74220558899506 3.9629e-05 deg
peri 309.0169377974476 4.4174e-05 deg
M 317.3198279789914 1.7973e-05 deg
tp 2458782.695030739486
(2019-Oct-26.19503074)
7.6785e-05 TDB
period 1536.784130905785
4.21
1.5588e-05
4.268e-08
d
yr
n .2342554121689264 2.3761e-09 deg/d
Q 2.889864214615395 1.9542e-08 au
  Orbit Determination Parameters
   # obs. used (total)      483  
   data-arc span      6734 days (18.44 yr)  
   first obs. used      2001-05-24  
   last obs. used      2019-10-31  
   planetary ephem.      DE431  
   SB-pert. ephem.      SB431-N16  
   condition code      0  
   norm. resid. RMS      .55499  
   source      ORB  
   producer      Otto Matic  
   solution date      2019-Nov-08 07:39:20  

Additional Information
 Earth MOID = 1.32778 au 
 Jupiter MOID = 2.58159 au 
 T_jup = 3.395 
[ show covariance matrix ]

Ephemeris | Orbit Diagram | Orbital Elements | Mission Design | Physical Parameters | Discovery Circumstances ]

Physical Parameter Table
Parameter Symbol Value Units Sigma Reference Notes
absolute magnitude H 15.8   n/a MPO450228  

305245 (2007 XO37)          Discovered 2007-Dec-13 by LINEAR at Socorro
Reference: 20111110/Numbers.arcLast Updated: 2011-11-14
Ephemeris | Orbit Diagram | Orbital Elements | Mission Design | Physical Parameters | Discovery Circumstances ]
ABOUT SSD CREDITS/AWARDS PRIVACY/COPYRIGHT GLOSSARY LINKS
FirstGov
(server date/time)  
NASA Home Page
Site Manager:   Ryan S. Park
Webmaster  Alan B. Chamberlin